Погода в Апуке

Погода в Апуке : погода сейчас, прогноз погоды и архив. Всё, что Вы хотите узнать о погоде в Апуке!

Хотите узнать прогноз погоды в Апуке? Тогда Вам сюда: Погода в Апуке

Поиск расширенной информации на нашем сайте:

Другие новости

Новости СМИ2

Главная страница сайта

Новости сайта

02.10.2013

Напоминаем, что на нашем новом сайте вы можете получить высокодетализированные прогнозы погоды по пунктам России, СНГ и мира (включающие важные для авиации метеовеличины, такие как направление и скорость ветра, видимость, явления погоды, количество и форма облачности, нижняя и верхняя граница облачности), а также ознакомиться с разнообразными материалами по авиационной метеорологии и подборкой полезных ссылок на эту тему.

Сайт Метеоцентр.Азия посвящён разработке технологий оптимизации авиаметеорологического обслуживания, включая проектирование и перспективное создание нескольких автоматизированных авиаметеорологических систем:
- система выпуска высокодетальных прогностических карт явлений погоды для нижнего воздушного пространства по России и ближнему зарубежью;
- система верификации прогнозов TAF (выпускаемых синоптиками официальных АМСГ РФ и ближнего зарубежья) и AUTOTAF (выпускаемых сайтом Метеоцентр.Азия) - выявление ошибок, онлайн-сопоставление с фактической погодой METAR, автоматическое внесение коррективов в прогнозы при резком отклонении фактической погоды от прогноза, подсчёт оправдываемости прогнозов по элементам и в целом;
- система обработки, анализа и отображения авиаметеорологической информации для применения провайдерами метеорологической информации.

Рекомендуем: хофитол при беременности

Погода в Апуке - сегодня

Время (UTC), дата Ветер
(°,м/с) 
Видим.   Явления Облачность Т
(°С)
Тd
(°С)
f(%) Тe
(°С)
Pmin
(гПа)
dP
(гПа)
Po
(мм)
O2
(г/м3)
Тmin Tmax R s Состояние
почвы
06 24.04.17 230 (ЮЗ) 20000 м    ясно 
+4.1 -0.5 72 +4  1010.2  -1.9  757  301           
09 24.04.17 230 (ЮЗ) 20000 м    ясно 
+1 -4.3 68 -1  1009.2  -1  756  304    +5.7       
12 24.04.17 230 (ЮЗ) 20000 м    ясно 
-2 -6.9 69 -5  1010.4  1.2  757  308           
15 24.04.17 020 (С) 20000 м    1/0 верхняя 
[Ci fib]
-4.1 +8.7 100 -7  1009.6  -0.8  757  308           
18 24.04.17 тихо ()   20000 м    ясно 
-6 -10.8 69 -6  1008.4  -1.3  756  312           
21 24.04.17 020 (С) 20000 м    ясно 
-0.4 -5.7 67 -1  1007.9  -0.5  755  305  -6      26  неравномерный
мокрый или
старый снег
100% 
00 25.04.17 020 (С) 20000 м    ясно 
+1.7 -3.4 69 +1  1007.7  -0.2  755  303           
03 25.04.17 020 (С) 20000 м    4/4 600 м 
[Sc]
+3.4 -1.9 68 +3  1006.3  -1.4  754  300           
06 25.04.17 020 (С) 20000 м    9/9 600 м 
[Sc]
+3 -2.1 69 +1  1006.9  0.6  755  301           
09 25.04.17 050 (СВ) 20000 м    10/10 600 м 
[Sc]
+1.2 -4 68 -1  1006.9  755  303    +3.4       
12 25.04.17 020 (С) 20000 м    6/6 600 м 
[Sc]
-0.3 -5.5 68 -3  1006.9  755  305           
15 25.04.17 020 (С) 20000 м    10/10 600 м 
[Sc]
-1.1 -6.2 68 -4  1006.6  -0.3  755  306           
18 25.04.17 020 (С) 20000 м    9/9 600 м 
[Sc]
-1.4 -6.5 68 -2  1006.6  755  306           
21 25.04.17 020 (С) 20000 м    9/3 600 м верхняя 
[Sc|Ci fib]
-2 -6.9 69 -3  1006.3  -0.3  754  307  -2      25  неравномерный
мокрый или
старый снег
100% 
00 26.04.17 020 (С) 20000 м    9/0 верхняя 
[Ci fib]
+2 -2.7 71 +1  1006.5  0.2  754  302           
03 26.04.17 020 (С) 20000 м    10/10 600 м 
[Sc]
+2.3 -2.1 73 +2  1007.4  0.9  755  302           
06 26.04.17 230 (ЮЗ) 20000 м    9/1 600 м верхняя 
[Sc|Ci fib]
+1.9 -2.8 71 1007  -0.4  755  302           
09 26.04.17 230 (ЮЗ) 20000 м    6/6 600 м 
[Sc]
+0.4 -4.3 71 -2  1007.5  0.5  755  304    +2.4       
12 26.04.17 020 (С) 20000 м    5/5 600 м 
[Sc]
-1.7 -4.6 81 -4  1007.8  0.3  755  307           
15 26.04.17 020 (С) 20000 м    9/1 600 м верхняя 
[Sc|Ci fib]
-3 -7.7 70 -4  1007.2  -0.6  755  308           
18 26.04.17 050 (СВ) 20000 м    10/10 600 м 
[Sc]
-4 -8.5 71 -5  1008.4  1.2  756  310           
21 26.04.17 050 (СВ) 20000 м    10/10 600 м 
[Sc]
-1 -0.6 100 -2  1008.7  0.3  756  306  -4      24  неравномерный
мокрый или
старый снег
100% 
00 27.04.17 050 (СВ) 20000 м    9/9 600 м 
[Sc]
+2.1 -2.9 69 +1  1008.7  756  303           
03 27.04.17 050 (СВ) 20000 м    9/9 600 м 
[Sc]
+3.2 -2.2 68 +1  1008.9  0.2  756  301           
06 27.04.17 050 (СВ) 20000 м    10/10 600 м 
[Sc]
+2.2 -3.1 68 +2  1009.3  0.4  757  303           
Время (UTC), дата Ветер
(°,м/с) 
Видим.   Явления Облачность Т
(°С)
Тd
(°С)
f(%) Тe
(°С)
Pmin
(гПа)
dP
(гПа)
Po
(мм)
O2
(г/м3)
Тmin Tmax R s Состояние
почвы

Для получения пояснительной информации подведите курсор к названию столбца.

ПОГОДА в Апуке - архив

Всё, что Вы хотите узнать о погоде в Апуке - удобно и подробно!

Выберите нужную дату (начиная с 1 января 2015* года) и нажмите кнопку "Найти".
Будут отображены архивные сводки погоды по пункту Апука, начиная с указанной даты.


Отображать данные в формате CSV (для использования в таблицах Excel)


Внимание! Наш архив погоды предназначен исключительно для личного некоммерческого использования в познавательных целях. Если Вам необходимы официальные справки о состоянии погоды (для производственных, юридических, коммерческих и т.п. целей), обращайтесь в органы Росгидромета.

*Примечание: данная дата относится к архиву по метеостанциям СССР (Россия, СНГ, Балтия).
Архив по метеостанциям Зарубежной Европы и Азии (кроме Китая) хранится 10 дней, по другим регионам земного шара (Китай, Африка, Америка, Австралия, Океания) - 1 день.

Апука - район местоположения метеостанции


Название, широта, долгота, высота метеостанции:
Апука 60.4°ш. 169.7°д. 5 м над ур. моря [Российская Федерация]

Дополнительная информация

В oтличие oт бoльшинства пoгoдных сайтoв мы публикуем пoдрoбную метеoинфoрмацию в детальнoм прoфессиoнальнoм фoрмате.

Характеристики температуры и влажнoсти вoздуха измеряются на высoте 2 м в тени вдали oт зданий и деревьев.
Скoрoсть ветра измеряется на высoте 10 м (на урoвне рoста челoвека скoрoсть ветра ниже в 1.5-2 раза). Если метеoстанция нахoдится в гoрoде или в лесу, тo скoрoсть ветра занижена на 2-4 м/с пo сравнению с oткрытым местoм. Скoрoсть ветра над акватoриями крупных рек и oзёр, а также на вершинах хoлмoв на 2-5 м/с выше, чем в oбычных услoвиях.
Атмoсфернoе давление в разных тoчках местнoсти мoжет значительнo oтличаться oт давления на метеoстанции, в зависимoсти oт услoвий рельефа (при пoдъёме на 10 м давление пoнижается примернo на 1 мм рт.ст.).